Regional Weather Roundup
Issued by NWS

Home | Current Version | Previous Version | Text Only | Print | Product List | Glossary Off
Versions: 1 2 3 4 5 6 7 8 9 10 11 12 13 14 15 16 17 18 19 20 21 22 23 24 25 26 27 28 29 30 31 32 33 34 35 36 37 38 39 40 41 42 43 44 45 46 47 48 49 50

000
ASUS43 KMKX 240900
RWRWI

WISCONSIN REGIONAL WEATHER ROUNDUP
NATIONAL WEATHER SERVICE MILWAUKEE/SULLIVAN WI
300 AM CST FRI FEB 24 2017

NOTE: "FAIR" INDICATES FEW OR NO CLOUDS BELOW 12,000 FEET WITH NO
SIGNIFICANT WEATHER AND/OR OBSTRUCTIONS TO VISIBILITY.

WIZ001-002-006>008-014>016-023>028-241000-
NORTHWEST WISCONSIN

CITY           SKY/WX    TMP DP  RH WIND       PRES   REMARKS
SUPERIOR ARPT  CLOUDY    23  14  67 NE12G17   29.99F WCI  12
ASHLAND        CLOUDY    28  18  66 NE14      29.93F WCI  17
HAYWARD        CLOUDY    26  16  65 NE14      29.86F WCI  14
SIREN          CLOUDY    26  17  69 N13       29.88F WCI  14
CUMBERLAND     CLOUDY    27  18  69 NE16G24   29.83F WCI  14
RICE LAKE      CLOUDY    29  21  72 N18G24    29.84F WCI  16
CHETEK         CLOUDY    29  21  71 NE10G17   29.82F WCI  20
LADYSMITH      CLOUDY    30  23  75 NE14      29.82F WCI  19
EAU CLAIRE     LGT SNOW  29  26  89 NE13      29.78F FOG     WCI  19
MENOMONIE      LGT SNOW  29  28  94 N10       29.81F WCI  20
NEW RICHMOND   CLOUDY    28  19  69 NE14G22   29.83F WCI  17
OSCEOLA        CLOUDY    28  19  68 N12       29.88F WCI  18
$$

WIZ003>005-009-010-017-018-241000-
NORTH CENTRAL WISCONSIN

CITY           SKY/WX    TMP DP  RH WIND       PRES   REMARKS
MANITOWISH WTR CLOUDY    24  23  93 NE6       29.86F WCI  17
ARBOR VITAE    CLOUDY    28  24  86 NE9         N/A  WCI  19
WOODRUFF       CLOUDY    28  24  86 NE9         N/A  WCI  19
RHINELANDER    SNOW      27  25  92 NE10      29.80F VSB 1/2 WCI  17
EAGLE RIVER    CLOUDY    26  22  84 NE9       29.85F WCI  17
LAND O LAKES   CLOUDY    26  24  91 NE6       29.88S WCI  19
PHILLIPS       CLOUDY    27  23  85 NE14      29.82F WCI  15
TOMAHAWK       SNOW      26  24  90 NE6       29.82F VSB 1/2 WCI  20
MEDFORD        LGT SNOW  26  23  91 NE20      29.76F WCI  12
MERRILL        NOT AVBL
$$

WIZ029-030-035-036-043>047-241000-
CENTRAL WISCONSIN

CITY           SKY/WX    TMP DP  RH WIND       PRES   REMARKS
WAUSAU         HVY SNOW  28  27  96 NE12G20   29.76F VSB 1/4 WCI  18
MOSINEE        SNOW      30  30 100 NE13      29.77F VSB 1/2 WCI  20
MARSHFIELD     LGT SNOW  29  27  92 NE13      29.71F FOG     WCI  19
STEVENS POINT  LGT SNOW  28  28 100 NE16      29.77F WCI  16
WAUPACA        LGT SNOW  32  29  91 NE14G24   29.79S WCI  22
WAUTOMA        LGT SNOW  30  28  92 NE15G23   29.73F FOG     WCI  19
WISC RAPIDS    LGT SNOW  30  28  92 E12G23    29.73F FOG     WCI  20
CAMP DOUGLAS   LGT SNOW  32  28  86 NE9G24    29.71S VSB 1   WCI  24
$$

WIZ011>013-019>022-031-037>040-048>050-241000-
NORTHEAST WISCONSIN

CITY           SKY/WX    TMP DP  RH WIND       PRES   REMARKS
ANTIGO         LGT SNOW  26  26  98 N13       29.83R VSB 3/4 WCI  15
SHAWANO        LGT SNOW  31  28  91 NE18      29.84R VSB 3/4 WCI  19
OCONTO         CLOUDY    29  28  94 NE15G21   29.84F VSB 3/4 WCI  18
STURGEON BAY   LGT SNOW  30  28  92 NE12      29.83S VSB 1   WCI  20
GREEN BAY      LGT SNOW  30  30 100 NE23G32   29.79F VSB 3/4 WCI  17
MANITOWOC      LGT SNOW  32  30  93 NE13G22   29.78R FOG     WCI  22
APPLETON       LGT SNOW  30  28  93 NE18G24   29.75R VSB 3/4 WCI  18
CLINTONVILLE   LGT SNOW  30  28  93 NE10G18   29.82R VSB 3/4 WCI  21
OSHKOSH        LGT SNOW  30  28  92 NE21G28   29.74S VSB 3/4 WCI  17
$$

WIZ032>034-041-042-053>061-241000-
SOUTHWEST WISCONSIN

CITY           SKY/WX    TMP DP  RH WIND       PRES   REMARKS
LA CROSSE      LGT SNOW  34  32  92 NE10      29.67F FOG     WCI  26
SPARTA         LGT SNOW  32  30  93 NE12G21   29.73F WCI  23
VIROQUA        CLOUDY    31  31  99 NE21G28   29.63F WCI  19
BOSCOBEL       MIX PCPN  34  30  85 NE14G26   29.60F WCI  25
PRAIRIE DU CHI MIX PCPN  32  32 100 NE12G20   29.59F WCI  23
PLATTEVILLE    CLOUDY    33  33 100 NE25G31   29.57F WCI  20
$$

WIZ056-057-062-063-064-067-068-241000-
SOUTH CENTRAL WISCONSIN

CITY           SKY/WX    TMP DP  RH WIND       PRES   REMARKS
REEDSBURG      LGT SNOW  31  31 100 NE13G22   29.69F WCI  21
BARABOO/DELLS  LGT SNOW  31  30  96 NE12G20   29.69F WCI  21
LONE ROCK      NOT AVBL
MINERAL POINT  LGT RAIN  34  34 100 NE16G23   29.58F WCI  23
MADISON        LGT RAIN  33  30  88 NE22G31   29.64F WCI  21
MIDDLETON      CLOUDY    34  33  96 NE16G25   29.64F WCI  23
WATERTOWN      TSTM      33  33 100 NE14G23   29.64S WCI  23
MONROE         CLOUDY    34  32  93 NE21G26   29.58S WCI  22
JANESVILLE     LGT RAIN  36  36 100 NE17      29.58F WCI  25
$$

WIZ051-052-058>065-066-070>072-241000-
SOUTHEAST WISCONSIN

CITY           SKY/WX    TMP DP  RH WIND       PRES   REMARKS
MILWAUKEE      TSTM      36  33  89 NE24G31   29.63F FOG     WCI  24
WAUKESHA       LGT RAIN  32  32 100 E18G28    29.63F WCI  20
MILWAUKEE/TIMM LGT SNOW  32  32 100 NE17G29   29.67R WCI  21
RACINE         LGT RAIN  36  34  92 N22G29    29.66S WCI  25
KENOSHA        CLOUDY    37  35  92 NE20G26   29.61F WCI  27
FOND DU LAC    FLURRIES  33  29  85 NE24G30   29.72F WCI  20
SHEBOYGAN      FRZ RAIN  33  32  96 NE23G32   29.73R WCI  21
WEST BEND      RAIN      32  32 100 NE26G35   29.65F WCI  18
JUNEAU         MIX PCPN  32  31  94 N20       29.68F WCI  20
$$

LSZ147-162-241000-
LAKE SUPERIOR

STATION/POSITION TIME  TEMP    WIND        PRES    WAVE
                       AIR SEA DIR/SP/G            HT/PER
                 (UTC) (F)     (DEG/KT/KT) (MB)    (FT/S)
DEVILS ISLAND    0800   27      30/ 25/ 27 1016.7R
PORT WING        0840   28      20/ 21/ 24 1015.2F
SAXON HARBOR     0840   30      50/ 25/ 29 1013.2F
$$

LMZ867-665-643>646-241000-
LAKE MICHIGAN

STATION/POSITION TIME  TEMP    WIND        PRES    WAVE
                       AIR SEA DIR/SP/G            HT/PER
                 (UTC) (F)     (DEG/KT/KT) (MB)    (FT/S)
CHAMBERS ISLAND  0840   32      10/ 17/ 19 1010.8S
NORTHPORT PIER   0840   33      30/ 14/ 18 1011.2F
SISTER BAY       0805   33      40/  9/ 15   N/A
KEWAUNEE LAKESHO 0830   32      50/ 19/ 26 1008.7F
SHEBOYGAN LAKESH 0800   33      40/ 30/ 35 1007.0F
PORT WASHINGTON  0840   35      50/ 23/ 27 1006.1F
MILWAUKEE LAKESH 0830   35      10/ 22/ 26   N/A
KENOSHA   LAKESH 0800   36      20/ 22/ 27 1004.1
$$

TC  - TEMPERATURE IN CELSIUS
VSB - VISIBILITY IN STATUTE MILES
WCI - WIND CHILL INDEX
HX  - HEAT INDEX




USA.gov is the U.S. government's official web portal to all federal, state and local government web resources and services.